FDX786 YSSY-YMML

Flight info

Callsign FDX786
Flight time 1h 3m
Altitude 36000
Route WOL H65 LEECE Q29 BOOIN
Aircraft B77L/H-SDE1E2E3FGHIJ2J3J4J5M1RWXY/LB1D1

Departure

Time 2026-05-04 00:37
Airport Sydney Kingsford Smith International Airport (YSSY)

Arrival

Time 2026-05-04 01:40
Airport Melbourne Airport (YMML)
Time Latitude Longitude Altitude Speed Heading
2026-05-04 00:17 -33.93256 151.16813 35 ft 0 kts 297°
2026-05-04 00:21 -33.93261 151.16822 35 ft 2 kts 297°
2026-05-04 00:21 -33.93268 151.16840 35 ft 2 kts 297°
2026-05-04 00:21 -33.93275 151.16857 35 ft 2 kts 285°
2026-05-04 00:22 -33.93276 151.16876 35 ft 2 kts 260°
2026-05-04 00:22 -33.93271 151.16895 35 ft 2 kts 234°
2026-05-04 00:22 -33.93263 151.16905 35 ft 0 kts 218°
2026-05-04 00:27 -33.93263 151.16904 35 ft 0 kts 218°
2026-05-04 00:27 -33.93277 151.16897 35 ft 3 kts 189°
2026-05-04 00:27 -33.93297 151.16916 35 ft 5 kts 110°
2026-05-04 00:27 -33.93287 151.16964 35 ft 7 kts 74°
2026-05-04 00:28 -33.93305 151.17015 35 ft 7 kts 138°
2026-05-04 00:28 -33.93342 151.17051 35 ft 7 kts 141°
2026-05-04 00:28 -33.93384 151.17075 35 ft 7 kts 165°
2026-05-04 00:28 -33.93438 151.17090 35 ft 12 kts 169°
2026-05-04 00:29 -33.93555 151.17117 35 ft 21 kts 169°
2026-05-04 00:29 -33.93718 151.17158 35 ft 27 kts 168°
2026-05-04 00:29 -33.93904 151.17206 35 ft 27 kts 167°
2026-05-04 00:29 -33.94075 151.17251 35 ft 24 kts 168°
2026-05-04 00:30 -33.94231 151.17292 35 ft 22 kts 168°
2026-05-04 00:30 -33.94379 151.17330 35 ft 21 kts 168°
2026-05-04 00:30 -33.94521 151.17367 35 ft 20 kts 168°
2026-05-04 00:30 -33.94657 151.17401 35 ft 19 kts 168°
2026-05-04 00:31 -33.94786 151.17435 35 ft 19 kts 168°
2026-05-04 00:31 -33.94909 151.17467 35 ft 18 kts 167°
2026-05-04 00:31 -33.95025 151.17498 35 ft 17 kts 168°
2026-05-04 00:31 -33.95135 151.17526 35 ft 16 kts 168°
2026-05-04 00:32 -33.95239 151.17553 35 ft 15 kts 168°
2026-05-04 00:32 -33.95336 151.17578 35 ft 14 kts 168°
2026-05-04 00:32 -33.95427 151.17602 35 ft 13 kts 168°
2026-05-04 00:32 -33.95514 151.17624 35 ft 12 kts 168°
2026-05-04 00:33 -33.95597 151.17646 35 ft 12 kts 168°
2026-05-04 00:33 -33.95771 151.17691 35 ft 14 kts 168°
2026-05-04 00:33 -33.95865 151.17715 35 ft 14 kts 168°
2026-05-04 00:34 -33.95970 151.17742 35 ft 19 kts 168°
2026-05-04 00:34 -33.96101 151.17776 35 ft 19 kts 168°
2026-05-04 00:34 -33.96225 151.17808 35 ft 18 kts 168°
2026-05-04 00:34 -33.96339 151.17838 35 ft 14 kts 167°
2026-05-04 00:35 -33.96417 151.17873 35 ft 12 kts 130°
2026-05-04 00:35 -33.96428 151.17966 35 ft 11 kts 81°
2026-05-04 00:35 -33.96403 151.18048 35 ft 6 kts 24°
2026-05-04 00:35 -33.96391 151.18050 35 ft 1 kts
2026-05-04 00:36 -33.96376 151.18049 35 ft 2 kts 353°
2026-05-04 00:36 -33.96309 151.18034 35 ft 27 kts 348°
2026-05-04 00:36 -33.95795 151.17900 35 ft 124 kts 348°
2026-05-04 00:36 -33.94673 151.17611 157 ft 195 kts 348°
2026-05-04 00:37 -33.93273 151.17250 1057 ft 216 kts 348°
2026-05-04 00:37 -33.91840 151.16719 2378 ft 209 kts 333°
2026-05-04 00:37 -33.90782 151.15597 3581 ft 205 kts 313°
2026-05-04 00:37 -33.89884 151.14208 4368 ft 213 kts 309°
2026-05-04 00:38 -33.89013 151.12688 4963 ft 237 kts 307°
2026-05-04 00:38 -33.88001 151.10988 5086 ft 249 kts 308°
2026-05-04 00:38 -33.86930 151.09296 4953 ft 260 kts 309°
2026-05-04 00:38 -33.85837 151.07575 5116 ft 255 kts 307°
2026-05-04 00:39 -33.84852 151.05781 5335 ft 262 kts 303°
2026-05-04 00:39 -33.84036 151.03821 5079 ft 270 kts 292°
2026-05-04 00:39 -33.83729 151.01626 5072 ft 265 kts 274°
2026-05-04 00:39 -33.83985 150.99446 5155 ft 264 kts 262°
2026-05-04 00:40 -33.84362 150.97269 5058 ft 268 kts 262°
2026-05-04 00:40 -33.84715 150.95090 5220 ft 266 kts 262°
2026-05-04 00:40 -33.85090 150.92899 5214 ft 269 kts 261°
2026-05-04 00:40 -33.85540 150.90720 5189 ft 270 kts 252°
2026-05-04 00:41 -33.86666 150.88891 5063 ft 280 kts 222°
2026-05-04 00:41 -33.88404 150.87893 5205 ft 276 kts 199°
2026-05-04 00:41 -33.90319 150.87550 5245 ft 282 kts 188°
2026-05-04 00:41 -33.92299 150.87357 5169 ft 288 kts 187°
2026-05-04 00:42 -33.94297 150.87180 5068 ft 290 kts 186°
2026-05-04 00:42 -33.96304 150.86981 4964 ft 287 kts 186°
2026-05-04 00:42 -33.98284 150.86788 5023 ft 282 kts 187°
2026-05-04 00:42 -34.00247 150.86567 4910 ft 287 kts 187°
2026-05-04 00:43 -34.02248 150.86306 5356 ft 290 kts 188°
2026-05-04 00:43 -34.04255 150.86042 6448 ft 294 kts 189°
2026-05-04 00:43 -34.06343 150.85764 7294 ft 300 kts 189°
2026-05-04 00:43 -34.08393 150.85493 8591 ft 295 kts 189°
2026-05-04 00:44 -34.10466 150.85233 9444 ft 306 kts 189°
2026-05-04 00:44 -34.12638 150.84985 10186 ft 315 kts 188°
2026-05-04 00:44 -34.14684 150.84814 12021 ft 266 kts 187°
2026-05-04 00:44 -34.16420 150.84731 13596 ft 241 kts 190°
2026-05-04 00:45 -34.18139 150.84468 13785 ft 269 kts 194°
2026-05-04 00:45 -34.20193 150.84097 13122 ft 330 kts 193°
2026-05-04 00:45 -34.22604 150.83623 13073 ft 366 kts 193°
2026-05-04 00:45 -34.25201 150.83150 13466 ft 388 kts 192°
2026-05-04 00:46 -34.27936 150.82717 14030 ft 403 kts 191°
2026-05-04 00:46 -34.30759 150.82326 14736 ft 414 kts 189°
2026-05-04 00:46 -34.33652 150.81960 15520 ft 421 kts 189°
2026-05-04 00:46 -34.36588 150.81588 16339 ft 427 kts 189°
2026-05-04 00:47 -34.39568 150.81206 17115 ft 433 kts 189°
2026-05-04 00:47 -34.42588 150.80817 17915 ft 438 kts 189°
2026-05-04 00:47 -34.45634 150.80421 18722 ft 443 kts 189°
2026-05-04 00:47 -34.48717 150.80020 19444 ft 447 kts 189°
2026-05-04 00:48 -34.51781 150.79393 20119 ft 447 kts 201°
2026-05-04 00:48 -34.54597 150.77854 20718 ft 444 kts 217°
2026-05-04 00:48 -34.56969 150.75500 21403 ft 439 kts 229°
2026-05-04 00:48 -34.59137 150.72874 22069 ft 441 kts 230°
2026-05-04 00:49 -34.61224 150.70118 22658 ft 445 kts 234°
2026-05-04 00:49 -34.63183 150.67195 23311 ft 447 kts 237°
2026-05-04 00:49 -34.65048 150.64158 23949 ft 450 kts 239°
2026-05-04 00:49 -34.66859 150.61038 24572 ft 453 kts 240°
2026-05-04 00:50 -34.68637 150.57921 25167 ft 458 kts 240°
2026-05-04 00:50 -34.70477 150.54744 25821 ft 461 kts 240°
2026-05-04 00:50 -34.72350 150.51558 26433 ft 465 kts 239°
2026-05-04 00:50 -34.74251 150.48353 27036 ft 469 kts 239°
2026-05-04 00:51 -34.76172 150.45126 27626 ft 472 kts 239°
2026-05-04 00:51 -34.78126 150.41888 28170 ft 477 kts 239°
2026-05-04 00:51 -34.80093 150.38622 28740 ft 480 kts 239°
2026-05-04 00:51 -34.82060 150.35340 29317 ft 482 kts 239°
2026-05-04 00:52 -34.84044 150.32019 29741 ft 487 kts 240°
2026-05-04 00:52 -34.86037 150.28675 30304 ft 488 kts 240°
2026-05-04 00:52 -34.88028 150.25360 31136 ft 481 kts 239°
2026-05-04 00:52 -34.89989 150.22088 31966 ft 475 kts 240°
2026-05-04 00:53 -34.91921 150.18836 32597 ft 473 kts 240°
2026-05-04 00:53 -34.93847 150.15583 33087 ft 473 kts 240°
2026-05-04 00:53 -34.95768 150.12333 33610 ft 472 kts 240°
2026-05-04 00:53 -34.97683 150.09088 34029 ft 471 kts 240°
2026-05-04 00:54 -34.99598 150.05842 34097 ft 471 kts 240°
2026-05-04 00:54 -35.03417 149.99367 34092 ft 470 kts 240°
2026-05-04 00:55 -35.07243 149.92875 34090 ft 472 kts 240°
2026-05-04 00:55 -35.11082 149.86359 34089 ft 473 kts 240°
2026-05-04 00:56 -35.14894 149.79863 34087 ft 474 kts 240°
2026-05-04 00:56 -35.18731 149.73308 34086 ft 474 kts 240°
2026-05-04 00:57 -35.22570 149.66738 34087 ft 475 kts 240°
2026-05-04 00:57 -35.26412 149.60169 34088 ft 476 kts 240°
2026-05-04 00:58 -35.30289 149.53602 34083 ft 476 kts 240°
2026-05-04 00:58 -35.34147 149.47016 34083 ft 476 kts 240°
2026-05-04 00:59 -35.37994 149.40415 34083 ft 476 kts 240°
2026-05-04 00:59 -35.41836 149.33808 34082 ft 476 kts 240°
2026-05-04 01:00 -35.45672 149.27194 34083 ft 476 kts 240°
2026-05-04 01:00 -35.48855 149.21698 34082 ft 476 kts 240°
2026-05-04 01:01 -35.53329 149.13959 34083 ft 476 kts 241°
2026-05-04 01:01 -35.56508 149.08447 34082 ft 475 kts 241°
2026-05-04 01:02 -35.60327 149.01816 34082 ft 475 kts 241°
2026-05-04 01:02 -35.64135 148.95190 34082 ft 474 kts 241°
2026-05-04 01:03 -35.67933 148.88570 34082 ft 474 kts 241°
2026-05-04 01:03 -35.71749 148.81950 34082 ft 474 kts 241°
2026-05-04 01:04 -35.75523 148.75360 34081 ft 474 kts 242°
2026-05-04 01:04 -35.79303 148.68710 34081 ft 474 kts 242°
2026-05-04 01:05 -35.83078 148.62059 34080 ft 473 kts 242°
2026-05-04 01:05 -35.86852 148.55406 34079 ft 473 kts 242°
2026-05-04 01:06 -35.90613 148.48741 34076 ft 473 kts 242°
2026-05-04 01:06 -35.94363 148.42080 34073 ft 473 kts 242°
2026-05-04 01:07 -35.98133 148.35421 34072 ft 473 kts 242°
2026-05-04 01:07 -36.01871 148.28734 34070 ft 473 kts 243°
2026-05-04 01:08 -36.05607 148.22029 34068 ft 474 kts 243°
2026-05-04 01:08 -36.09342 148.15319 34066 ft 473 kts 243°
2026-05-04 01:09 -36.13071 148.08620 34063 ft 473 kts 243°
2026-05-04 01:09 -36.16799 148.01997 34062 ft 473 kts 242°
2026-05-04 01:10 -36.20542 147.95305 34059 ft 473 kts 243°
2026-05-04 01:10 -36.24266 147.88590 34055 ft 473 kts 243°
2026-05-04 01:11 -36.27991 147.81859 34052 ft 474 kts 243°
2026-05-04 01:11 -36.31718 147.75123 34049 ft 473 kts 243°
2026-05-04 01:12 -36.35441 147.68376 34046 ft 474 kts 243°
2026-05-04 01:12 -36.39158 147.61613 34042 ft 475 kts 243°
2026-05-04 01:13 -36.42875 147.54829 34040 ft 475 kts 243°
2026-05-04 01:13 -36.46587 147.48044 34035 ft 476 kts 243°
2026-05-04 01:14 -36.50312 147.41224 34021 ft 477 kts 243°
2026-05-04 01:14 -36.54061 147.34417 34015 ft 478 kts 243°
2026-05-04 01:15 -36.57821 147.27613 34011 ft 478 kts 243°
2026-05-04 01:15 -36.61543 147.20758 34007 ft 478 kts 244°
2026-05-04 01:16 -36.65262 147.13887 34002 ft 478 kts 244°
2026-05-04 01:16 -36.68982 147.07011 33997 ft 478 kts 244°
2026-05-04 01:17 -36.72700 147.00135 33993 ft 478 kts 244°
2026-05-04 01:17 -36.74561 146.96692 33891 ft 479 kts 244°
2026-05-04 01:17 -36.76426 146.93236 33348 ft 481 kts 244°
2026-05-04 01:17 -36.78277 146.89797 32750 ft 477 kts 244°
2026-05-04 01:18 -36.80127 146.86359 32107 ft 477 kts 244°
2026-05-04 01:18 -36.81973 146.82923 31454 ft 476 kts 244°
2026-05-04 01:18 -36.83817 146.79488 30794 ft 476 kts 244°
2026-05-04 01:18 -36.85630 146.76109 30257 ft 473 kts 244°
2026-05-04 01:19 -36.87454 146.72706 29716 ft 470 kts 244°
2026-05-04 01:19 -36.89267 146.69322 29161 ft 467 kts 244°
2026-05-04 01:19 -36.91086 146.65976 28614 ft 464 kts 243°
2026-05-04 01:19 -36.92904 146.62662 28075 ft 460 kts 244°
2026-05-04 01:20 -36.94687 146.59362 27542 ft 456 kts 244°
2026-05-04 01:20 -36.96438 146.56087 27018 ft 452 kts 244°
2026-05-04 01:20 -36.98177 146.52821 26501 ft 448 kts 244°
2026-05-04 01:20 -36.99891 146.49596 25984 ft 444 kts 244°
2026-05-04 01:21 -37.01595 146.46390 25472 ft 440 kts 244°
2026-05-04 01:21 -37.03283 146.43211 24965 ft 437 kts 244°
2026-05-04 01:21 -37.04957 146.40057 24448 ft 433 kts 244°
2026-05-04 01:21 -37.06620 146.36928 23943 ft 430 kts 244°
2026-05-04 01:22 -37.08266 146.33822 23436 ft 426 kts 244°
2026-05-04 01:22 -37.09898 146.30738 22936 ft 423 kts 244°
2026-05-04 01:22 -37.11514 146.27678 22438 ft 419 kts 244°
2026-05-04 01:22 -37.13119 146.24642 21941 ft 416 kts 244°
2026-05-04 01:23 -37.14729 146.21640 21447 ft 413 kts 244°
2026-05-04 01:23 -37.16314 146.18662 20956 ft 410 kts 244°
2026-05-04 01:23 -37.17881 146.15695 20461 ft 406 kts 244°
2026-05-04 01:23 -37.19430 146.12747 19974 ft 403 kts 244°
2026-05-04 01:24 -37.20965 146.09821 19486 ft 400 kts 244°
2026-05-04 01:24 -37.22487 146.06915 18996 ft 397 kts 244°
2026-05-04 01:24 -37.23997 146.04029 18505 ft 394 kts 244°
2026-05-04 01:24 -37.25496 146.01164 18026 ft 391 kts 244°
2026-05-04 01:25 -37.26983 145.98321 17541 ft 388 kts 244°
2026-05-04 01:25 -37.28458 145.95499 17059 ft 385 kts 243°
2026-05-04 01:25 -37.29922 145.92703 16572 ft 383 kts 243°
2026-05-04 01:25 -37.31376 145.89919 16088 ft 380 kts 243°
2026-05-04 01:26 -37.32842 145.87166 15603 ft 378 kts 243°
2026-05-04 01:26 -37.34295 145.84430 15203 ft 373 kts 243°
2026-05-04 01:26 -37.35716 145.81733 15117 ft 368 kts 243°
2026-05-04 01:26 -37.37139 145.79021 15037 ft 375 kts 243°
2026-05-04 01:27 -37.38583 145.76265 14969 ft 379 kts 243°
2026-05-04 01:27 -37.40036 145.73487 14942 ft 381 kts 243°
2026-05-04 01:27 -37.41493 145.70701 14942 ft 382 kts 243°
2026-05-04 01:27 -37.42951 145.67908 14925 ft 382 kts 243°
2026-05-04 01:28 -37.44404 145.65129 14710 ft 378 kts 243°
2026-05-04 01:28 -37.45869 145.62369 14199 ft 381 kts 241°
2026-05-04 01:28 -37.47432 145.59678 13607 ft 382 kts 239°
2026-05-04 01:28 -37.49031 145.57004 12982 ft 382 kts 239°
2026-05-04 01:29 -37.50610 145.54312 12357 ft 382 kts 239°
2026-05-04 01:29 -37.52167 145.51615 11725 ft 376 kts 239°
2026-05-04 01:29 -37.53692 145.48979 11107 ft 369 kts 239°
2026-05-04 01:29 -37.55170 145.46417 10493 ft 364 kts 239°
2026-05-04 01:30 -37.56651 145.43860 9973 ft 356 kts 239°
2026-05-04 01:30 -37.58077 145.41423 9871 ft 334 kts 239°
2026-05-04 01:30 -37.59403 145.39140 9824 ft 312 kts 240°
2026-05-04 01:30 -37.60656 145.36975 9553 ft 301 kts 240°
2026-05-04 01:31 -37.61867 145.34875 9220 ft 292 kts 240°
2026-05-04 01:31 -37.63044 145.32829 8858 ft 286 kts 241°
2026-05-04 01:31 -37.64210 145.30804 8409 ft 283 kts 241°
2026-05-04 01:31 -37.65349 145.28822 8119 ft 275 kts 241°
2026-05-04 01:32 -37.66457 145.26895 7832 ft 268 kts 241°
2026-05-04 01:32 -37.67538 145.25017 7551 ft 261 kts 241°
2026-05-04 01:32 -37.68597 145.23177 7277 ft 258 kts 241°
2026-05-04 01:32 -37.69648 145.21346 7002 ft 258 kts 241°
2026-05-04 01:33 -37.70703 145.19518 6731 ft 257 kts 241°
2026-05-04 01:33 -37.71755 145.17689 6455 ft 257 kts 241°
2026-05-04 01:33 -37.72806 145.15863 6182 ft 257 kts 241°
2026-05-04 01:33 -37.73851 145.14043 5918 ft 255 kts 241°
2026-05-04 01:34 -37.74890 145.12229 5650 ft 254 kts 241°
2026-05-04 01:34 -37.75926 145.10416 5381 ft 256 kts 241°
2026-05-04 01:34 -37.76989 145.08564 5109 ft 263 kts 240°
2026-05-04 01:34 -37.78059 145.06699 4837 ft 262 kts 240°
2026-05-04 01:35 -37.79126 145.04833 4557 ft 261 kts 240°
2026-05-04 01:35 -37.80178 145.02973 4285 ft 259 kts 243°
2026-05-04 01:35 -37.81004 145.00988 4038 ft 253 kts 251°
2026-05-04 01:35 -37.81679 144.98952 3817 ft 249 kts 256°
2026-05-04 01:36 -37.82178 144.96861 3598 ft 248 kts 261°
2026-05-04 01:36 -37.82539 144.94746 3392 ft 243 kts 265°
2026-05-04 01:36 -37.82744 144.92658 3186 ft 238 kts 268°
2026-05-04 01:36 -37.82876 144.90603 2986 ft 228 kts 279°
2026-05-04 01:37 -37.82398 144.88776 2816 ft 215 kts 302°
2026-05-04 01:37 -37.81535 144.87285 2641 ft 207 kts 314°
2026-05-04 01:37 -37.80409 144.86224 2481 ft 199 kts 334°
2026-05-04 01:37 -37.79105 144.85743 2350 ft 192 kts 346°
2026-05-04 01:38 -37.77811 144.85476 2155 ft 190 kts 351°
2026-05-04 01:38 -37.76502 144.85334 1932 ft 188 kts 355°
2026-05-04 01:38 -37.75211 144.85285 1749 ft 182 kts 356°
2026-05-04 01:38 -37.74006 144.85151 1574 ft 165 kts 353°
2026-05-04 01:39 -37.72940 144.84961 1402 ft 145 kts 353°
2026-05-04 01:39 -37.72013 144.84781 1172 ft 129 kts 353°
2026-05-04 01:39 -37.71142 144.84608 944 ft 125 kts 353°
2026-05-04 01:39 -37.70278 144.84437 711 ft 127 kts 353°
2026-05-04 01:40 -37.69423 144.84258 631 ft 122 kts 352°
2026-05-04 01:40 -37.68602 144.84097 494 ft 116 kts 354°
2026-05-04 01:40 -37.67848 144.83960 450 ft 102 kts 354°
2026-05-04 01:40 -37.67326 144.83866 448 ft 49 kts 351°
2026-05-04 01:41 -37.67099 144.83826 448 ft 27 kts
2026-05-04 01:41 -37.66925 144.83869 448 ft 21 kts 20°
2026-05-04 01:41 -37.66818 144.83924 448 ft 13 kts 22°
2026-05-04 01:41 -37.66744 144.83984 448 ft 13 kts 56°
2026-05-04 01:42 -37.66731 144.84088 448 ft 12 kts 103°
2026-05-04 01:42 -37.66776 144.84173 448 ft 12 kts 146°
2026-05-04 01:42 -37.66852 144.84203 448 ft 11 kts 171°
2026-05-04 01:42 -37.66928 144.84218 448 ft 11 kts 172°
2026-05-04 01:43 -37.67000 144.84231 448 ft 10 kts 172°
2026-05-04 01:43 -37.67071 144.84244 448 ft 11 kts 171°
2026-05-04 01:43 -37.67163 144.84262 448 ft 16 kts 172°
2026-05-04 01:43 -37.67285 144.84284 448 ft 20 kts 172°
2026-05-04 01:44 -37.67418 144.84307 448 ft 19 kts 178°
2026-05-04 01:44 -37.67544 144.84333 448 ft 18 kts 172°
2026-05-04 01:44 -37.67664 144.84355 448 ft 17 kts 171°
2026-05-04 01:44 -37.67767 144.84375 448 ft 13 kts 169°
2026-05-04 01:45 -37.67835 144.84430 448 ft 12 kts 96°
2026-05-04 01:45 -37.67821 144.84534 448 ft 12 kts 78°
2026-05-04 01:45 -37.67739 144.84694 448 ft 11 kts 81°
2026-05-04 01:46 -37.67729 144.84786 448 ft 9 kts 82°
2026-05-04 01:46 -37.67726 144.84834 448 ft 5 kts 107°
2026-05-04 01:46 -37.67754 144.84859 448 ft 5 kts 162°
2026-05-04 01:46 -37.67787 144.84868 448 ft 5 kts 170°
2026-05-04 01:47 -37.67800 144.84870 448 ft 0 kts 170°